Regional Weather Roundup
Issued by NWS Cleveland, OH

Home | Current Version | Previous Version | Graphics & Text | Print | Product List | Glossary On
Versions: 1 2 3 4 5 6 7 8 9 10 11 12 13 14 15 16 17 18 19 20 21 22 23 24 25 26 27 28 29 30 31 32 33 34 35 36 37 38 39 40 41 42 43 44 45 46 47 48 49 50
000
ASUS41 KCLE 061710
RWRCLE
OHIO REGIONAL WEATHER ROUNDUP
NATIONAL WEATHER SERVICE CLEVELAND, OH
100 PM EDT FRI MAY 06 2016

NOTE: "FAIR" INDICATES FEW OR NO CLOUDS BELOW 12,000 FEET WITH NO
SIGNIFICANT WEATHER AND/OR OBSTRUCTIONS TO VISIBILITY.

OHZ001>008-015>018-024>027-034-035-043-044-061800-
   NORTHWEST OHIO

CITY           SKY/WX    TMP DP  RH WIND       PRES   REMARKS
DEFIANCE       SUNNY     66  42  41 W7        29.97F
FINDLAY        SUNNY     67  39  35 VRB7      29.95F
TOLEDO EXPRESS SUNNY     66  37  34 N8        29.96F
TOLEDO EXEC    SUNNY     67  39  35 VRB6      29.96F
LIMA           SUNNY     63  43  48 W6        29.97F
$$

OHZ009>014-019>023-028>033-038-089-061800-
   NORTHEAST OHIO

CITY           SKY/WX    TMP DP  RH WIND       PRES   REMARKS
CLE-HOPKINS    SUNNY     61  43  51 N12       29.95F
CLE-LAKEFRONT  SUNNY     56  48  74 W13       29.92F
CUY CO. ARPT   MOSUNNY   63  45  51 N12       29.93S
LORAIN-ELYRIA  SUNNY     60  44  55 N8        29.94F
ASHTABULA      SUNNY     61  39  44 N9G20     29.89F
AKRON-CANTON   MOSUNNY   64  37  36 N21G30    29.87F
WOOSTER        SUNNY     65  42  43 N20G26    29.90F
MANSFIELD      MOSUNNY   64  42  44 N17G23    29.93F
YOUNGSTOWN     MOSUNNY   66  36  32 N26G33    29.84F
$$

OHZ042-051>053-060>062-070>072-077>081-061800-
  SOUTHWEST OHIO

CITY           SKY/WX    TMP DP  RH WIND       PRES   REMARKS
CINC-COVINGTON MOSUNNY   66  45  46 NW7       29.98F
CINC-LUNKEN    MOSUNNY   68  44  42 N13       29.97F
HAMILTON       SUNNY     68  46  45 N9        29.98F
DAYTON         MOSUNNY   66  40  38 N14G20    29.98F
WRIGHT-PAT AFB MOSUNNY   66  41  40 VRB7G17   29.96F
DAYTON GENERAL SUNNY     67  38  34 N13G18    29.96F
WILMINGTON     MOSUNNY   65  44  46 N12       29.95F
$$

OHZ036-037-039>041-045>050-054>059-063>069-073>076-082>088-061800-
  CENTRAL AND SOUTHEAST OHIO

CITY           SKY/WX    TMP DP  RH WIND       PRES   REMARKS
COLUMBUS       MOSUNNY   65  40  39 N20G25    29.92F
OSU AIRPORT    SUNNY     66  42  41 N13G21    29.93F
BOLTON FIELD   SUNNY     64  48  55 N17       29.94F
RICKENBACK AFB SUNNY     65  42  42 N14G25    29.92F
NEWARK         CLOUDY    67  38  34 N10G21    29.90F
MARION         SUNNY     65  40  39 N14G22    29.95F
LANCASTER      MOSUNNY   66  43  43 N14G24    29.91F
ZANESVILLE     CLOUDY    67  39  35 N12G18    29.88F
NEW PHILLY     PTSUNNY   67  39  35 N12G20    29.86F
$$




USA.gov is the U.S. government's official web portal to all federal, state and local government web resources and services.